Location: Detroit
(42.3310°N, 83.0460°W)
Time: 23:42:13
(UTC-04:00)

A-11 Canister half - Pass Details

Date: 13 February 2023
Orbit: 1526 x 1682 km, 47.3° (Epoch: 20 March)

Event Time Altitude Azimuth Distance (km) Brightness Sun altitude
Rises 02:06:34 0° 204° (SSW) 4,726 - -56.3°
Reaches altitude 10° 02:09:57 10° 196° (SSW) 3,726 - -55.9°
Maximum altitude 02:18:12 36° 134° (SE) 2,244 - -54.9°
Exits shadow 02:23:55 19° 82° (E) 3,045 10.7 -54.2°
Drops below altitude 10° 02:26:22 10° 72° (ENE) 3,695 11.3 -53.9°
Sets 02:29:41 0° 65° (ENE) 4,682 12.1 -53.5°
